timestamp,surface_pressure_avg,surface_temp_avg,battery_voltage,lat,long
2018-09-13 00:00:00+00:00,306.7463,16.88,12.89,47.84626,-54.09684
2018-09-13 00:10:00+00:00,316.2546,16.88,12.81,47.84626,-54.09684
2018-09-13 00:20:00+00:00,325.2147,16.87,12.89,47.84626,-54.09684
2018-09-13 00:30:00+00:00,333.3513,16.86,12.89,47.84626,-54.09684
2018-09-13 00:40:00+00:00,339.2447,16.87,12.97,47.84626,-54.09684
2018-09-13 00:50:00+00:00,348.6646,16.85,12.97,47.84626,-54.09684
2018-09-13 01:00:00+00:00,356.2496,16.85,12.89,47.84626,-54.09684
2018-09-13 01:10:00+00:00,357.4113,16.86,12.81,47.84626,-54.09684
2018-09-13 01:20:00+00:00,356.7463,16.8,12.89,47.84626,-54.09684
2018-09-13 01:30:00+00:00,359.3314,16.85,12.89,47.84626,-54.09684
2018-09-13 01:40:00+00:00,359.5063,16.88,12.97,47.84626,-54.09684
2018-09-13 01:50:00+00:00,353.763,16.89,12.97,47.84626,-54.09684
2018-09-13 02:00:00+00:00,349.2563,16.88,12.89,47.84626,-54.09684
2018-09-13 02:10:00+00:00,350.9413,16.87,12.81,47.84626,-54.09684
2018-09-13 02:20:00+00:00,350.9463,16.87,12.89,47.84626,-54.09684
2018-09-13 02:30:00+00:00,349.0213,16.88,12.89,47.84626,-54.09684
2018-09-13 02:40:00+00:00,349.8896,16.88,12.97,47.84626,-54.09684
2018-09-13 02:50:00+00:00,352.0013,16.88,12.97,47.84626,-54.09684
2018-09-13 03:00:00+00:00,351.3129,16.89,12.89,47.84626,-54.09684
2018-09-13 03:10:00+00:00,347.2764,16.87,12.81,47.84626,-54.09684
2018-09-13 03:20:00+00:00,348.098,16.87,12.89,47.84626,-54.09684
2018-09-13 03:30:00+00:00,348.3746,16.87,12.89,47.84626,-54.09684
2018-09-13 03:40:00+00:00,339.7679,16.8,12.97,47.84626,-54.09684
2018-09-13 03:50:00+00:00,329.7596,16.7,12.97,47.84626,-54.09684
2018-09-13 04:00:00+00:00,328.0946,16.65,12.89,47.84626,-54.09684
2018-09-13 04:10:00+00:00,322.1996,16.66,12.81,47.84626,-54.09684
2018-09-13 04:20:00+00:00,305.4863,16.6,12.89,47.84626,-54.09684
2018-09-13 04:30:00+00:00,296.868,16.6,12.89,47.84626,-54.09684
2018-09-13 04:40:00+00:00,289.5463,16.66,12.97,47.84626,-54.09684
2018-09-13 04:50:00+00:00,275.7597,16.68,12.97,47.84626,-54.09684
2018-09-13 05:00:00+00:00,257.4848,16.6,12.89,47.84626,-54.09684
2018-09-13 05:10:00+00:00,247.1581,16.61,12.81,47.84626,-54.09684
2018-09-13 05:20:00+00:00,243.2964,16.6,12.89,47.84626,-54.09684
2018-09-13 05:30:00+00:00,231.2914,16.6,12.89,47.84626,-54.09684
2018-09-13 05:40:00+00:00,220.0265,16.6,12.97,47.84626,-54.09684
2018-09-13 05:50:00+00:00,214.2215,16.62,12.97,47.84626,-54.09684
2018-09-13 06:00:00+00:00,202.8131,16.64,12.89,47.84626,-54.09684
2018-09-13 06:10:00+00:00,191.8581,16.61,12.81,47.84626,-54.09684
2018-09-13 06:20:00+00:00,188.5781,16.6,12.89,47.84626,-54.09684
2018-09-13 06:30:00+00:00,183.4181,16.6,12.89,47.84626,-54.09684
2018-09-13 06:40:00+00:00,174.3148,16.6,12.97,47.84626,-54.09684
2018-09-13 06:50:00+00:00,169.7631,16.6,12.97,47.84626,-54.09684
2018-09-13 07:00:00+00:00,172.7431,16.6,12.89,47.84626,-54.09684
2018-09-13 07:10:00+00:00,169.1965,16.6,12.81,47.84626,-54.09684
2018-09-13 07:20:00+00:00,167.6015,16.6,12.89,47.84626,-54.09684
2018-09-13 07:30:00+00:00,175.7031,16.6,12.89,47.84626,-54.09684
2018-09-13 07:40:00+00:00,177.1698,16.6,12.97,47.84626,-54.09684
2018-09-13 07:50:00+00:00,171.0498,16.6,12.97,47.84626,-54.09684
2018-09-13 08:00:00+00:00,170.8698,16.6,12.89,47.84626,-54.09684
2018-09-13 08:10:00+00:00,177.7131,16.6,12.81,47.84626,-54.09684
2018-09-13 08:20:00+00:00,181.3248,16.6,12.89,47.84626,-54.09684
2018-09-13 08:30:00+00:00,184.6248,16.6,12.89,47.84626,-54.09684
2018-09-13 08:40:00+00:00,190.4031,16.6,12.97,47.84626,-54.09684
2018-09-13 08:50:00+00:00,196.7364,16.6,12.97,47.84626,-54.09684
2018-09-13 09:00:00+00:00,199.6181,16.59,12.89,47.84626,-54.09684
2018-09-13 09:10:00+00:00,205.7598,16.59,12.81,47.84626,-54.09684
2018-09-13 09:20:00+00:00,213.7615,16.59,12.89,47.84626,-54.09684
2018-09-13 09:30:00+00:00,218.7531,16.6,12.89,47.84626,-54.09684
2018-09-13 09:40:00+00:00,222.9448,16.6,12.97,47.84626,-54.09684
2018-09-13 09:50:00+00:00,228.6297,16.59,12.97,47.84626,-54.09684
2018-09-13 10:00:00+00:00,232.0297,16.6,12.89,47.84626,-54.09684
2018-09-13 10:10:00+00:00,236.7647,16.57,12.81,47.84626,-54.09684
2018-09-13 10:20:00+00:00,241.2781,16.59,12.97,47.84626,-54.09684
2018-09-13 10:30:00+00:00,244.6498,16.58,12.97,47.84626,-54.09684
2018-09-13 10:40:00+00:00,246.0864,16.5,13.05,47.84626,-54.09684
2018-09-13 10:50:00+00:00,255.9064,16.5,13.05,47.84626,-54.09684
2018-09-13 11:00:00+00:00,262.5098,16.56,13.05,47.84626,-54.09684
2018-09-13 11:10:00+00:00,262.4714,16.56,13.05,47.84626,-54.09684
2018-09-13 11:20:00+00:00,264.7498,16.5,13.29,47.84626,-54.09684
2018-09-13 11:30:00+00:00,278.243,16.5,13.37,47.84626,-54.09684
2018-09-13 11:40:00+00:00,283.758,16.51,13.53,47.84626,-54.09684
2018-09-13 11:50:00+00:00,288.768,16.55,13.6,47.84626,-54.09684
2018-09-13 12:00:00+00:00,297.968,16.57,13.53,47.84626,-54.09684
2018-09-13 12:10:00+00:00,311.0064,16.59,13.68,47.84626,-54.09684
2018-09-13 12:20:00+00:00,315.6647,16.59,13.76,47.84626,-54.09684
2018-09-13 12:30:00+00:00,328.8564,16.59,13.76,47.84626,-54.09684
2018-09-13 12:40:00+00:00,342.0746,16.59,14.08,47.84626,-54.09684
2018-09-13 12:50:00+00:00,347.9329,16.59,14.08,47.84626,-54.09684
2018-09-13 13:00:00+00:00,350.3214,16.59,13.92,47.84626,-54.09684
2018-09-13 13:10:00+00:00,358.8329,16.59,13.92,47.84626,-54.09684
2018-09-13 13:20:00+00:00,362.8563,16.59,14.4,47.84626,-54.09684
2018-09-13 13:30:00+00:00,362.8096,16.6,14.24,47.84626,-54.09684
2018-09-13 13:40:00+00:00,369.2862,16.6,14.32,47.84626,-54.09684
2018-09-13 13:50:00+00:00,371.7112,16.6,14.56,47.84626,-54.09684
2018-09-13 14:00:00+00:00,366.3046,16.69,16.07,47.84626,-54.09684
2018-09-13 14:10:00+00:00,369.7712,16.7,15.91,47.84626,-54.09684
2018-09-13 14:20:00+00:00,374.303,16.66,15.27,47.84626,-54.09684
2018-09-13 14:30:00+00:00,370.033,16.7,14.56,47.84626,-54.09684
2018-09-13 14:40:00+00:00,364.3729,16.8,14.64,47.84626,-54.09684
2018-09-13 14:50:00+00:00,368.5362,16.79,14.64,47.84626,-54.09684
2018-09-13 15:00:00+00:00,364.9579,16.8,14.56,47.84626,-54.09684
2018-09-13 15:10:00+00:00,356.6963,16.89,14.48,47.84626,-54.09684
2018-09-13 15:20:00+00:00,357.1779,16.8,14.88,47.84626,-54.09684
2018-09-13 15:30:00+00:00,354.5912,16.8,14.72,47.84626,-54.09684
2018-09-13 15:40:00+00:00,347.4446,16.8,14.64,47.84626,-54.09684
2018-09-13 15:50:00+00:00,346.2195,16.8,14.56,47.84626,-54.09684
2018-09-13 16:00:00+00:00,348.348,16.8,14.48,47.84626,-54.09684
2018-09-13 16:10:00+00:00,340.2496,16.8,14.48,47.84626,-54.09684
2018-09-13 16:20:00+00:00,327.7313,16.89,14.48,47.84626,-54.09684
2018-09-13 16:30:00+00:00,323.7913,16.9,14.4,47.84626,-54.09684
2018-09-13 16:40:00+00:00,321.8497,16.8,14.48,47.84626,-54.09684
2018-09-13 16:50:00+00:00,310.7963,16.89,14.48,47.84626,-54.09684
2018-09-13 17:00:00+00:00,297.303,16.9,14.4,47.84626,-54.09684
2018-09-13 17:10:00+00:00,286.5997,16.9,14.32,47.84626,-54.09684
2018-09-13 17:20:00+00:00,277.1915,16.81,14.4,47.84626,-54.09684
2018-09-13 17:30:00+00:00,261.2614,16.86,14.4,47.84626,-54.09684
2018-09-13 17:40:00+00:00,247.9364,16.89,14.4,47.84626,-54.09684
2018-09-13 17:50:00+00:00,239.7964,16.9,14.32,47.84626,-54.09684
2018-09-13 18:00:00+00:00,233.7381,16.9,14.24,47.84626,-54.09684
2018-09-13 18:10:00+00:00,221.9698,16.9,14.16,47.84626,-54.09684
2018-09-13 18:20:00+00:00,210.6931,16.9,14.24,47.84626,-54.09684
2018-09-13 18:30:00+00:00,206.3998,16.9,14.16,47.84626,-54.09684
2018-09-13 18:40:00+00:00,199.9814,16.9,14.16,47.84626,-54.09684
2018-09-13 18:50:00+00:00,188.6331,16.9,14.08,47.84626,-54.09684
2018-09-13 19:00:00+00:00,180.1998,16.9,14.0,47.84626,-54.09684
2018-09-13 19:10:00+00:00,180.6664,16.89,13.84,47.84626,-54.09684
2018-09-13 19:20:00+00:00,181.6181,16.86,13.92,47.84626,-54.09684
2018-09-13 19:30:00+00:00,177.5432,16.87,13.84,47.84626,-54.09684
2018-09-13 19:40:00+00:00,180.0298,16.83,13.84,47.84626,-54.09684
2018-09-13 19:50:00+00:00,184.8715,16.82,13.84,47.84626,-54.09684
2018-09-13 20:00:00+00:00,183.2848,16.84,13.84,47.84626,-54.09684
2018-09-13 20:10:00+00:00,182.8882,16.84,13.68,47.84626,-54.09684
2018-09-13 20:20:00+00:00,187.4414,16.83,13.68,47.84626,-54.09684
2018-09-13 20:30:00+00:00,191.7782,16.82,13.68,47.84626,-54.09684
2018-09-13 20:40:00+00:00,192.3915,16.83,13.68,47.84626,-54.09684
2018-09-13 20:50:00+00:00,193.2581,16.86,13.68,47.84626,-54.09684
2018-09-13 21:00:00+00:00,196.5747,16.89,13.6,47.84626,-54.09684
2018-09-13 21:10:00+00:00,199.8414,16.9,13.44,47.84626,-54.09684
2018-09-13 21:20:00+00:00,203.3748,16.9,13.44,47.84626,-54.09684
2018-09-13 21:30:00+00:00,210.8347,16.97,13.37,47.84626,-54.09684
2018-09-13 21:40:00+00:00,217.9864,17.0,13.37,47.84626,-54.09684
2018-09-13 21:50:00+00:00,221.0215,17.0,13.37,47.84626,-54.09684
2018-09-13 22:00:00+00:00,223.5681,17.0,13.29,47.84626,-54.09684
2018-09-13 22:10:00+00:00,229.2631,17.01,13.13,47.84626,-54.09684
2018-09-13 22:20:00+00:00,235.8198,17.04,13.21,47.84626,-54.09684
2018-09-13 22:30:00+00:00,236.4831,17.07,13.21,47.84626,-54.09684
2018-09-13 22:40:00+00:00,240.9664,17.08,13.21,47.84626,-54.09684
2018-09-13 22:50:00+00:00,248.2631,17.06,13.21,47.84626,-54.09684
2018-09-13 23:00:00+00:00,252.4581,17.06,13.13,47.84626,-54.09684
2018-09-13 23:10:00+00:00,253.9314,17.06,13.05,47.84626,-54.09684
2018-09-13 23:20:00+00:00,256.3731,17.02,13.13,47.84626,-54.09684
2018-09-13 23:30:00+00:00,259.2048,17.0,13.13,47.84626,-54.09684
2018-09-13 23:40:00+00:00,265.0014,17.0,13.13,47.84626,-54.09684
2018-09-13 23:50:00+00:00,272.8531,17.0,13.13,47.84626,-54.09684
